Time,TemperatureF,DewpointF,PressureIn,WindDirection,WindDirectionDegrees,WindSpeedMPH,WindSpeedGustMPH,Humidity,HourlyPrecipIn,Conditions,Clouds,dailyrainin,SoftwareType,DateUTC
2013-06-12 00:00:00,81.5,66.8,29.56,South,180,14.0,14.0,61,0.00,,,0.00,Wunderground v.1.15,2013-06-12 05:00:00,
2013-06-12 00:05:00,81.4,66.7,29.56,SSE,153,14.0,28.0,61,0.00,,,0.00,Wunderground v.1.15,2013-06-12 05:05:00,
2013-06-12 00:10:00,81.4,66.7,29.56,SSE,161,15.0,28.0,61,0.00,,,0.00,Wunderground v.1.15,2013-06-12 05:10:00,
2013-06-12 00:15:00,81.3,66.6,29.56,SSE,149,15.0,28.0,61,0.00,,,0.00,Wunderground v.1.15,2013-06-12 05:15:00,
2013-06-12 00:20:00,81.2,66.5,29.56,SSW,212,14.0,14.0,61,0.00,,,0.00,Wunderground v.1.15,2013-06-12 05:20:00,
2013-06-12 00:30:00,81.0,66.3,29.56,South,178,13.0,13.0,61,0.00,,,0.00,Wunderground v.1.15,2013-06-12 05:30:00,
2013-06-12 00:35:00,81.0,65.8,29.56,SSW,192,13.0,28.0,60,0.00,,,0.00,Wunderground v.1.15,2013-06-12 05:35:00,
2013-06-12 00:40:00,80.9,65.7,29.56,SSE,160,13.0,28.0,60,0.00,,,0.00,Wunderground v.1.15,2013-06-12 05:40:00,
2013-06-12 00:45:00,81.0,65.8,29.55,South,175,14.0,28.0,60,0.00,,,0.00,Wunderground v.1.15,2013-06-12 05:45:00,
2013-06-12 00:50:00,81.2,65.5,29.54,South,186,17.0,17.0,59,0.00,,,0.00,Wunderground v.1.15,2013-06-12 05:50:00,
2013-06-12 00:55:00,81.3,65.6,29.54,South,173,18.0,18.0,59,0.00,,,0.00,Wunderground v.1.15,2013-06-12 05:55:00,
2013-06-12 01:00:00,81.2,65.5,29.54,South,175,18.0,28.0,59,0.00,,,0.00,Wunderground v.1.15,2013-06-12 06:00:00,
2013-06-12 01:10:00,81.2,65.0,29.54,South,184,17.0,28.0,58,0.00,,,0.00,Wunderground v.1.15,2013-06-12 06:10:00,
2013-06-12 01:15:00,81.2,65.0,29.54,SSE,167,18.0,28.0,58,0.00,,,0.00,Wunderground v.1.15,2013-06-12 06:15:00,
2013-06-12 01:20:00,81.1,64.9,29.53,South,182,17.0,17.0,58,0.00,,,0.00,Wunderground v.1.15,2013-06-12 06:20:00,
2013-06-12 01:25:00,81.1,64.9,29.53,South,185,17.0,28.0,58,0.00,,,0.00,Wunderground v.1.15,2013-06-12 06:25:00,
2013-06-12 01:35:00,81.0,65.3,29.53,SSE,167,19.0,28.0,59,0.00,,,0.00,Wunderground v.1.15,2013-06-12 06:35:00,
2013-06-12 01:45:00,80.9,65.7,29.53,South,191,19.0,28.0,60,0.00,,,0.00,Wunderground v.1.15,2013-06-12 06:45:00,
2013-06-12 01:50:00,80.9,65.7,29.53,SSE,162,19.0,28.0,60,0.00,,,0.00,Wunderground v.1.15,2013-06-12 06:50:00,
2013-06-12 01:55:00,80.9,65.7,29.53,South,180,19.0,28.0,60,0.00,,,0.00,Wunderground v.1.15,2013-06-12 06:55:00,
2013-06-12 02:00:00,80.8,66.1,29.53,South,183,19.0,19.0,61,0.00,,,0.00,Wunderground v.1.15,2013-06-12 07:00:00,
2013-06-12 02:05:00,80.7,66.0,29.53,South,186,18.0,28.0,61,0.00,,,0.00,Wunderground v.1.15,2013-06-12 07:05:00,
2013-06-12 02:15:00,80.6,66.4,29.60,NW,326,11.0,28.0,62,0.00,,,0.00,Wunderground v.1.15,2013-06-12 07:15:00,
2013-06-12 02:20:00,80.2,66.0,29.58,South,189,7.0,28.0,62,0.00,,,0.00,Wunderground v.1.15,2013-06-12 07:20:00,
2013-06-12 02:25:00,79.9,66.2,29.57,SSW,209,8.0,28.0,63,0.00,,,0.00,Wunderground v.1.15,2013-06-12 07:25:00,
2013-06-12 02:30:00,80.0,66.3,29.60,NW,323,8.0,8.0,63,0.00,,,0.00,Wunderground v.1.15,2013-06-12 07:30:00,
2013-06-12 02:40:00,79.8,66.5,29.60,NNW,336,7.0,28.0,64,0.00,,,0.00,Wunderground v.1.15,2013-06-12 07:40:00,
2013-06-12 02:50:00,79.9,66.2,29.58,South,169,8.0,28.0,63,0.00,,,0.00,Wunderground v.1.15,2013-06-12 07:50:00,
2013-06-12 02:55:00,80.1,66.4,29.57,SSW,192,9.0,28.0,63,0.00,,,0.00,Wunderground v.1.15,2013-06-12 07:55:00,
2013-06-12 03:00:00,80.2,66.5,29.59,SW,215,11.0,11.0,63,0.00,,,0.00,Wunderground v.1.15,2013-06-12 08:00:00,
2013-06-12 03:05:00,80.3,66.1,29.59,SSW,203,8.0,28.0,62,0.00,,,0.00,Wunderground v.1.15,2013-06-12 08:05:00,
2013-06-12 03:10:00,80.3,66.6,29.60,NW,304,5.0,28.0,63,0.00,,,0.00,Wunderground v.1.15,2013-06-12 08:10:00,
2013-06-12 03:15:00,80.0,66.3,29.60,NW,306,4.0,28.0,63,0.00,,,0.00,Wunderground v.1.15,2013-06-12 08:15:00,
2013-06-12 03:25:00,79.5,66.3,29.60,South,175,5.0,28.0,64,0.00,,,0.00,Wunderground v.1.15,2013-06-12 08:25:00,
2013-06-12 03:30:00,79.3,66.5,29.60,South,175,4.0,4.0,65,0.00,,,0.00,Wunderground v.1.15,2013-06-12 08:30:00,
2013-06-12 03:35:00,79.2,66.4,29.61,South,179,2.0,28.0,65,0.00,,,0.00,Wunderground v.1.15,2013-06-12 08:35:00,
2013-06-12 03:45:00,78.8,66.9,29.62,SSW,196,2.0,3.0,67,0.00,,,0.00,Wunderground v.1.15,2013-06-12 08:45:00,
2013-06-12 03:50:00,78.6,67.6,29.62,SSW,197,2.0,2.0,69,0.00,,,0.01,Wunderground v.1.15,2013-06-12 08:50:00,
2013-06-12 04:00:00,76.8,67.9,29.60,SSE,157,4.0,28.0,74,0.15,,,0.08,Wunderground v.1.15,2013-06-12 09:00:00,
2013-06-12 04:05:00,75.9,67.4,29.60,SSE,157,5.0,28.0,75,0.08,,,0.08,Wunderground v.1.15,2013-06-12 09:05:00,
2013-06-12 04:10:00,75.1,67.8,29.59,SSE,150,5.0,5.0,78,0.05,,,0.08,Wunderground v.1.15,2013-06-12 09:10:00,
2013-06-12 04:15:00,74.7,67.4,29.59,SSE,148,4.0,28.0,78,0.00,,,0.08,Wunderground v.1.15,2013-06-12 09:15:00,
2013-06-12 04:20:00,74.9,67.6,29.58,SE,135,4.0,28.0,78,0.00,,,0.08,Wunderground v.1.15,2013-06-12 09:20:00,
2013-06-12 04:30:00,75.5,67.4,29.58,SE,136,6.0,28.0,76,0.00,,,0.08,Wunderground v.1.15,2013-06-12 09:30:00,
2013-06-12 04:35:00,75.2,67.5,29.58,SE,139,5.0,28.0,77,0.00,,,0.08,Wunderground v.1.15,2013-06-12 09:35:00,
2013-06-12 04:40:00,74.8,67.5,29.58,SE,139,3.0,3.0,78,0.00,,,0.08,Wunderground v.1.15,2013-06-12 09:40:00,
2013-06-12 04:50:00,74.1,67.5,29.58,SE,139,2.0,28.0,80,0.00,,,0.08,Wunderground v.1.15,2013-06-12 09:50:00,
2013-06-12 04:55:00,73.8,67.6,29.58,SE,141,3.0,28.0,81,0.00,,,0.08,Wunderground v.1.15,2013-06-12 09:55:00,
2013-06-12 05:05:00,73.3,68.2,29.57,SSE,150,5.0,28.0,84,0.00,,,0.08,Wunderground v.1.15,2013-06-12 10:05:00,
2013-06-12 05:10:00,73.2,68.1,29.57,SSE,159,5.0,28.0,84,0.00,,,0.08,Wunderground v.1.15,2013-06-12 10:10:00,
2013-06-12 05:20:00,73.2,68.4,29.57,SSE,162,6.0,28.0,85,0.00,,,0.08,Wunderground v.1.15,2013-06-12 10:20:00,
2013-06-12 05:25:00,73.3,68.2,29.57,SSE,162,6.0,28.0,84,0.00,,,0.08,Wunderground v.1.15,2013-06-12 10:25:00,
2013-06-12 05:30:00,73.2,68.4,29.57,SSE,162,5.0,5.0,85,0.00,,,0.08,Wunderground v.1.15,2013-06-12 10:30:00,
2013-06-12 05:35:00,73.1,68.3,29.57,SSE,162,3.0,28.0,85,0.00,,,0.08,Wunderground v.1.15,2013-06-12 10:35:00,
2013-06-12 05:45:00,73.0,68.2,29.57,SSE,162,4.0,28.0,85,0.00,,,0.08,Wunderground v.1.15,2013-06-12 10:45:00,
2013-06-12 05:50:00,73.1,68.3,29.57,SSE,163,4.0,28.0,85,0.00,,,0.08,Wunderground v.1.15,2013-06-12 10:50:00,
2013-06-12 05:55:00,73.0,68.2,29.57,SSE,162,3.0,28.0,85,0.00,,,0.08,Wunderground v.1.15,2013-06-12 10:55:00,
2013-06-12 06:00:00,72.9,68.5,29.57,SSE,162,3.0,28.0,86,0.00,,,0.08,Wunderground v.1.15,2013-06-12 11:00:00,
2013-06-12 06:05:00,72.8,68.4,29.57,SSE,162,4.0,28.0,86,0.00,,,0.08,Wunderground v.1.15,2013-06-12 11:05:00,
2013-06-12 06:15:00,72.8,68.4,29.57,SSE,162,3.0,4.0,86,0.00,,,0.08,Wunderground v.1.15,2013-06-12 11:15:00,
2013-06-12 06:25:00,72.9,68.5,29.56,SSE,162,5.0,28.0,86,0.00,,,0.08,Wunderground v.1.15,2013-06-12 11:25:00,
2013-06-12 06:30:00,73.0,68.2,29.56,SSE,165,6.0,28.0,85,0.00,,,0.08,Wunderground v.1.15,2013-06-12 11:30:00,
2013-06-12 06:35:00,73.1,68.3,29.57,SSE,165,6.0,28.0,85,0.00,,,0.08,Wunderground v.1.15,2013-06-12 11:35:00,
2013-06-12 06:40:00,73.2,68.4,29.57,SSE,166,5.0,5.0,85,0.00,,,0.08,Wunderground v.1.15,2013-06-12 11:40:00,
2013-06-12 06:50:00,73.6,68.5,29.57,South,176,6.0,28.0,84,0.00,,,0.08,Wunderground v.1.15,2013-06-12 11:50:00,
2013-06-12 06:55:00,73.8,68.7,29.57,South,186,6.0,28.0,84,0.00,,,0.08,Wunderground v.1.15,2013-06-12 11:55:00,
2013-06-12 07:00:00,74.0,68.9,29.57,South,183,6.0,6.0,84,0.00,,,0.08,Wunderground v.1.15,2013-06-12 12:00:00,
2013-06-12 07:05:00,74.0,68.9,29.57,South,177,6.0,8.0,84,0.00,,,0.08,Wunderground v.1.15,2013-06-12 12:05:00,
2013-06-12 07:10:00,74.2,68.7,29.57,South,180,6.0,6.0,83,0.00,,,0.08,Wunderground v.1.15,2013-06-12 12:10:00,
2013-06-12 07:15:00,74.3,68.8,29.57,South,179,6.0,7.0,83,0.00,,,0.08,Wunderground v.1.15,2013-06-12 12:15:00,
2013-06-12 07:25:00,74.6,69.1,29.58,South,186,4.0,28.0,83,0.00,,,0.08,Wunderground v.1.15,2013-06-12 12:25:00,
2013-06-12 07:30:00,74.7,69.2,29.59,South,186,3.0,28.0,83,0.00,,,0.08,Wunderground v.1.15,2013-06-12 12:30:00,
2013-06-12 07:35:00,74.8,68.9,29.59,South,186,3.0,28.0,82,0.00,,,0.08,Wunderground v.1.15,2013-06-12 12:35:00,
2013-06-12 07:40:00,74.9,69.0,29.59,South,186,2.0,28.0,82,0.00,,,0.08,Wunderground v.1.15,2013-06-12 12:40:00,
2013-06-12 07:45:00,75.1,69.6,29.59,South,186,2.0,28.0,83,0.00,,,0.08,Wunderground v.1.15,2013-06-12 12:45:00,
2013-06-12 07:50:00,75.3,69.4,29.59,South,186,1.0,28.0,82,0.00,,,0.08,Wunderground v.1.15,2013-06-12 12:50:00,
2013-06-12 08:00:00,75.6,69.4,29.59,South,186,1.0,28.0,81,0.00,,,0.08,Wunderground v.1.15,2013-06-12 13:00:00,
2013-06-12 08:05:00,75.7,69.8,29.59,South,186,1.0,28.0,82,0.00,,,0.08,Wunderground v.1.15,2013-06-12 13:05:00,
2013-06-12 08:10:00,75.8,69.9,29.60,South,186,0.0,28.0,82,0.00,,,0.08,Wunderground v.1.15,2013-06-12 13:10:00,
2013-06-12 08:15:00,76.0,69.7,29.60,South,186,0.0,28.0,81,0.00,,,0.08,Wunderground v.1.15,2013-06-12 13:15:00,
2013-06-12 08:25:00,76.1,69.8,29.60,South,187,1.0,28.0,81,0.00,,,0.08,Wunderground v.1.15,2013-06-12 13:25:00,
2013-06-12 08:30:00,76.2,70.3,29.61,SSW,206,1.0,1.0,82,0.00,,,0.08,Wunderground v.1.15,2013-06-12 13:30:00,
2013-06-12 08:35:00,76.1,70.2,29.61,SW,226,2.0,3.0,82,0.00,,,0.08,Wunderground v.1.15,2013-06-12 13:35:00,
2013-06-12 08:40:00,75.9,70.0,29.61,SW,230,3.0,28.0,82,0.00,,,0.08,Wunderground v.1.15,2013-06-12 13:40:00,
2013-06-12 08:45:00,75.8,69.9,29.61,WSW,240,3.0,28.0,82,0.00,,,0.08,Wunderground v.1.15,2013-06-12 13:45:00,
2013-06-12 08:50:00,75.8,70.6,29.62,NW,320,6.0,28.0,84,0.00,,,0.08,Wunderground v.1.15,2013-06-12 13:50:00,
2013-06-12 08:55:00,75.7,70.5,29.62,NNW,335,9.0,28.0,84,0.00,,,0.08,Wunderground v.1.15,2013-06-12 13:55:00,
2013-06-12 09:00:00,75.9,71.1,29.62,NNW,342,10.0,28.0,85,0.00,,,0.08,Wunderground v.1.15,2013-06-12 14:00:00,
2013-06-12 09:05:00,76.1,70.9,29.62,NNW,348,11.0,28.0,84,0.00,,,0.08,Wunderground v.1.15,2013-06-12 14:05:00,
2013-06-12 09:10:00,76.2,70.3,29.62,NNW,330,11.0,11.0,82,0.00,,,0.08,Wunderground v.1.15,2013-06-12 14:10:00,
2013-06-12 09:15:00,76.7,70.8,29.63,NNW,344,9.0,28.0,82,0.00,,,0.08,Wunderground v.1.15,2013-06-12 14:15:00,
2013-06-12 09:20:00,77.2,71.3,29.62,NNW,341,8.0,28.0,82,0.00,,,0.08,Wunderground v.1.15,2013-06-12 14:20:00,
2013-06-12 09:30:00,77.7,70.3,29.62,North,355,11.0,28.0,78,0.00,,,0.08,Wunderground v.1.15,2013-06-12 14:30:00,
2013-06-12 09:40:00,78.1,70.3,29.63,North,350,12.0,28.0,77,0.00,,,0.08,Wunderground v.1.15,2013-06-12 14:40:00,
2013-06-12 09:45:00,78.2,70.4,29.63,NNW,327,13.0,28.0,77,0.00,,,0.08,Wunderground v.1.15,2013-06-12 14:45:00,
2013-06-12 09:50:00,78.4,70.6,29.63,North,355,12.0,28.0,77,0.00,,,0.08,Wunderground v.1.15,2013-06-12 14:50:00,
2013-06-12 09:55:00,78.6,70.0,29.63,NNE,13,11.0,28.0,75,0.00,,,0.08,Wunderground v.1.15,2013-06-12 14:55:00,
2013-06-12 10:00:00,78.9,70.3,29.64,North,5,11.0,11.0,75,0.00,,,0.08,Wunderground v.1.15,2013-06-12 15:00:00,
2013-06-12 10:05:00,79.1,70.1,29.63,NNW,339,11.0,28.0,74,0.00,,,0.08,Wunderground v.1.15,2013-06-12 15:05:00,
2013-06-12 10:10:00,79.3,70.7,29.63,NNW,342,11.0,28.0,75,0.00,,,0.08,Wunderground v.1.15,2013-06-12 15:10:00,
2013-06-12 10:15:00,79.6,71.0,29.63,NNW,340,11.0,28.0,75,0.00,,,0.08,Wunderground v.1.15,2013-06-12 15:15:00,
2013-06-12 10:20:00,79.8,71.2,29.63,NNW,342,11.0,28.0,75,0.00,,,0.08,Wunderground v.1.15,2013-06-12 15:20:00,
2013-06-12 10:25:00,80.0,71.0,29.64,NNW,343,11.0,28.0,74,0.00,,,0.08,Wunderground v.1.15,2013-06-12 15:25:00,
2013-06-12 10:35:00,80.4,70.5,29.65,NNW,348,12.0,14.0,72,0.00,,,0.08,Wunderground v.1.15,2013-06-12 15:35:00,
2013-06-12 10:40:00,80.4,70.5,29.65,NNW,348,11.0,28.0,72,0.00,,,0.08,Wunderground v.1.15,2013-06-12 15:40:00,
2013-06-12 10:50:00,81.0,70.7,29.64,NNW,346,11.0,11.0,71,0.00,,,0.08,Wunderground v.1.15,2013-06-12 15:50:00,
2013-06-12 10:55:00,81.3,71.0,29.65,NNW,347,10.0,28.0,71,0.00,,,0.08,Wunderground v.1.15,2013-06-12 15:55:00,
2013-06-12 11:00:00,81.6,71.3,29.65,NNW,330,9.0,28.0,71,0.00,,,0.08,Wunderground v.1.15,2013-06-12 16:00:00,
2013-06-12 11:05:00,81.9,71.2,29.65,NW,325,10.0,28.0,70,0.00,,,0.08,Wunderground v.1.15,2013-06-12 16:05:00,
2013-06-12 11:10:00,82.1,72.2,29.65,NNW,348,10.0,28.0,72,0.00,,,0.08,Wunderground v.1.15,2013-06-12 16:10:00,
2013-06-12 11:20:00,82.8,71.6,29.65,NW,326,9.0,28.0,69,0.00,,,0.08,Wunderground v.1.15,2013-06-12 16:20:00,
2013-06-12 11:25:00,83.4,72.2,29.66,NNW,343,10.0,28.0,69,0.00,,,0.08,Wunderground v.1.15,2013-06-12 16:25:00,
2013-06-12 11:30:00,83.9,72.2,29.65,NNW,342,9.0,28.0,68,0.00,,,0.08,Wunderground v.1.15,2013-06-12 16:30:00,
2013-06-12 11:40:00,84.7,70.7,29.66,NNW,329,12.0,28.0,63,0.00,,,0.08,Wunderground v.1.15,2013-06-12 16:40:00,
2013-06-12 11:45:00,85.1,71.5,29.66,NW,323,13.0,28.0,64,0.00,,,0.08,Wunderground v.1.15,2013-06-12 16:45:00,
2013-06-12 11:55:00,85.6,72.0,29.66,NNW,335,13.0,28.0,64,0.00,,,0.08,Wunderground v.1.15,2013-06-12 16:55:00,
2013-06-12 12:00:00,85.5,71.5,29.67,NW,316,13.0,13.0,63,0.00,,,0.08,Wunderground v.1.15,2013-06-12 17:00:00,
2013-06-12 12:05:00,85.3,71.3,29.67,NW,324,13.0,28.0,63,0.00,,,0.08,Wunderground v.1.15,2013-06-12 17:05:00,
2013-06-12 12:10:00,85.4,72.7,29.67,NNW,329,13.0,28.0,66,0.00,,,0.08,Wunderground v.1.15,2013-06-12 17:10:00,
2013-06-12 12:15:00,85.8,70.8,29.67,NW,321,14.0,28.0,61,0.00,,,0.08,Wunderground v.1.15,2013-06-12 17:15:00,
2013-06-12 12:20:00,86.0,71.0,29.67,NNW,327,16.0,16.0,61,0.00,,,0.08,Wunderground v.1.15,2013-06-12 17:20:00,
2013-06-12 12:30:00,86.3,71.3,29.67,NW,324,17.0,28.0,61,0.00,,,0.08,Wunderground v.1.15,2013-06-12 17:30:00,
2013-06-12 12:35:00,86.2,70.2,29.68,NNW,336,19.0,28.0,59,0.00,,,0.08,Wunderground v.1.15,2013-06-12 17:35:00,
2013-06-12 12:45:00,86.3,71.3,29.70,NNW,329,17.0,28.0,61,0.00,,,0.08,Wunderground v.1.15,2013-06-12 17:45:00,
2013-06-12 12:50:00,86.3,70.3,29.69,NNW,337,17.0,17.0,59,0.00,,,0.08,Wunderground v.1.15,2013-06-12 17:50:00,
2013-06-12 12:55:00,86.4,68.8,29.69,NNW,344,18.0,19.0,56,0.00,,,0.08,Wunderground v.1.15,2013-06-12 17:55:00,
2013-06-12 13:05:00,86.4,68.8,29.69,NNW,330,19.0,21.0,56,0.00,,,0.08,Wunderground v.1.15,2013-06-12 18:05:00,
2013-06-12 13:10:00,86.3,69.3,29.69,NNW,340,19.0,19.0,57,0.00,,,0.08,Wunderground v.1.15,2013-06-12 18:10:00,
2013-06-12 13:15:00,86.1,67.0,29.69,NNW,332,20.0,20.0,53,0.00,,,0.08,Wunderground v.1.15,2013-06-12 18:15:00,
2013-06-12 13:20:00,86.2,68.7,29.70,NNW,346,20.0,28.0,56,0.00,,,0.08,Wunderground v.1.15,2013-06-12 18:20:00,
2013-06-12 13:25:00,86.1,68.0,29.70,North,349,20.0,28.0,55,0.00,,,0.08,Wunderground v.1.15,2013-06-12 18:25:00,
2013-06-12 13:35:00,86.7,67.5,29.70,NNW,334,20.0,26.0,53,0.00,,,0.08,Wunderground v.1.15,2013-06-12 18:35:00,
2013-06-12 13:40:00,86.8,68.2,29.71,NNW,336,20.0,20.0,54,0.00,,,0.08,Wunderground v.1.15,2013-06-12 18:40:00,
2013-06-12 13:50:00,86.6,69.6,29.71,NNW,346,18.0,18.0,57,0.00,,,0.08,Wunderground v.1.15,2013-06-12 18:50:00,
2013-06-12 13:55:00,86.9,67.7,29.71,NNW,339,18.0,20.0,53,0.00,,,0.08,Wunderground v.1.15,2013-06-12 18:55:00,
2013-06-12 14:00:00,87.0,67.8,29.71,NNW,340,20.0,20.0,53,0.00,,,0.08,Wunderground v.1.15,2013-06-12 19:00:00,
2013-06-12 14:10:00,87.4,67.1,29.71,NNW,332,18.0,18.0,51,0.00,,,0.08,Wunderground v.1.15,2013-06-12 19:10:00,
2013-06-12 14:15:00,87.4,65.9,29.71,NNW,328,19.0,19.0,49,0.00,,,0.08,Wunderground v.1.15,2013-06-12 19:15:00,
2013-06-12 14:20:00,87.6,66.1,29.71,NNW,342,19.0,19.0,49,0.00,,,0.08,Wunderground v.1.15,2013-06-12 19:20:00,
2013-06-12 14:25:00,87.8,65.7,29.71,NNW,328,19.0,28.0,48,0.00,,,0.08,Wunderground v.1.15,2013-06-12 19:25:00,
2013-06-12 14:30:00,87.7,65.6,29.71,North,355,19.0,28.0,48,0.00,,,0.08,Wunderground v.1.15,2013-06-12 19:30:00,
2013-06-12 14:35:00,87.7,65.6,29.71,NNW,333,19.0,28.0,48,0.00,,,0.08,Wunderground v.1.15,2013-06-12 19:35:00,
2013-06-12 14:45:00,87.8,65.7,29.72,NNW,329,17.0,28.0,48,0.00,,,0.08,Wunderground v.1.15,2013-06-12 19:45:00,
2013-06-12 14:55:00,87.4,64.7,29.72,NNW,342,18.0,28.0,47,0.00,,,0.08,Wunderground v.1.15,2013-06-12 19:55:00,
2013-06-12 15:00:00,87.3,64.6,29.72,NNW,340,20.0,20.0,47,0.00,,,0.08,Wunderground v.1.15,2013-06-12 20:00:00,
2013-06-12 15:05:00,87.4,64.7,29.72,NNW,339,19.0,22.0,47,0.00,,,0.08,Wunderground v.1.15,2013-06-12 20:05:00,
2013-06-12 15:10:00,87.5,65.4,29.72,NNW,345,18.0,18.0,48,0.00,,,0.08,Wunderground v.1.15,2013-06-12 20:10:00,
2013-06-12 15:20:00,86.9,63.6,29.72,NNW,339,19.0,28.0,46,0.00,,,0.08,Wunderground v.1.15,2013-06-12 20:20:00,
2013-06-12 15:25:00,86.8,62.9,29.72,NNW,331,19.0,28.0,45,0.00,,,0.08,Wunderground v.1.15,2013-06-12 20:25:00,
2013-06-12 15:30:00,86.8,64.2,29.72,NNW,346,18.0,28.0,47,0.00,,,0.08,Wunderground v.1.15,2013-06-12 20:30:00,
2013-06-12 15:35:00,87.0,64.9,29.73,NNW,328,17.0,28.0,48,0.00,,,0.08,Wunderground v.1.15,2013-06-12 20:35:00,
2013-06-12 15:40:00,87.2,65.7,29.73,North,355,15.0,15.0,49,0.00,,,0.08,Wunderground v.1.15,2013-06-12 20:40:00,
2013-06-12 15:50:00,86.8,64.8,29.73,NNW,347,16.0,28.0,48,0.00,,,0.08,Wunderground v.1.15,2013-06-12 20:50:00,
2013-06-12 16:00:00,86.3,64.9,29.74,NW,321,19.0,19.0,49,0.00,,,0.08,Wunderground v.1.15,2013-06-12 21:00:00,
2013-06-12 16:05:00,86.1,64.1,29.74,NNW,336,17.0,21.0,48,0.00,,,0.08,Wunderground v.1.15,2013-06-12 21:05:00,
2013-06-12 16:10:00,86.2,64.8,29.74,North,360,17.0,17.0,49,0.00,,,0.08,Wunderground v.1.15,2013-06-12 21:10:00,
2013-06-12 16:15:00,86.0,65.2,29.74,NNW,342,17.0,28.0,50,0.00,,,0.08,Wunderground v.1.15,2013-06-12 21:15:00,
2013-06-12 16:25:00,86.1,65.3,29.74,North,350,17.0,20.0,50,0.00,,,0.08,Wunderground v.1.15,2013-06-12 21:25:00,
2013-06-12 16:30:00,85.9,65.1,29.75,North,355,17.0,17.0,50,0.00,,,0.08,Wunderground v.1.15,2013-06-12 21:30:00,
2013-06-12 16:40:00,85.2,64.5,29.75,NW,323,18.0,18.0,50,0.00,,,0.08,Wunderground v.1.15,2013-06-12 21:40:00,
2013-06-12 16:45:00,84.8,64.7,29.75,NNW,343,19.0,19.0,51,0.00,,,0.08,Wunderground v.1.15,2013-06-12 21:45:00,
2013-06-12 16:50:00,84.9,64.8,29.76,NNW,332,18.0,18.0,51,0.00,,,0.08,Wunderground v.1.15,2013-06-12 21:50:00,
2013-06-12 17:00:00,84.9,63.6,29.76,NW,324,15.0,28.0,49,0.00,,,0.08,Wunderground v.1.15,2013-06-12 22:00:00,
2013-06-12 17:05:00,84.8,62.9,29.76,NNW,332,18.0,28.0,48,0.00,,,0.08,Wunderground v.1.15,2013-06-12 22:05:00,
2013-06-12 17:10:00,84.7,62.8,29.76,NNW,335,18.0,28.0,48,0.00,,,0.08,Wunderground v.1.15,2013-06-12 22:10:00,
2013-06-12 17:15:00,84.5,63.2,29.76,North,360,18.0,28.0,49,0.00,,,0.08,Wunderground v.1.15,2013-06-12 22:15:00,
2013-06-12 17:20:00,84.2,63.5,29.76,NNW,327,19.0,28.0,50,0.00,,,0.08,Wunderground v.1.15,2013-06-12 22:20:00,
2013-06-12 17:30:00,83.8,62.6,29.76,NNW,336,18.0,28.0,49,0.00,,,0.08,Wunderground v.1.15,2013-06-12 22:30:00,
2013-06-12 17:40:00,83.3,61.6,29.77,NNW,337,18.0,18.0,48,0.00,,,0.08,Wunderground v.1.15,2013-06-12 22:40:00,
2013-06-12 17:45:00,83.3,61.6,29.77,NNW,346,17.0,19.0,48,0.00,,,0.08,Wunderground v.1.15,2013-06-12 22:45:00,
2013-06-12 17:50:00,83.2,60.9,29.77,NNW,333,18.0,28.0,47,0.00,,,0.08,Wunderground v.1.15,2013-06-12 22:50:00,
2013-06-12 17:55:00,83.0,60.7,29.77,NNW,340,19.0,28.0,47,0.00,,,0.08,Wunderground v.1.15,2013-06-12 22:55:00,
2013-06-12 18:00:00,83.0,61.3,29.77,NNW,337,17.0,17.0,48,0.00,,,0.08,Wunderground v.1.15,2013-06-12 23:00:00,
2013-06-12 18:10:00,82.5,60.8,29.77,NW,312,20.0,28.0,48,0.00,,,0.08,Wunderground v.1.15,2013-06-12 23:10:00,
2013-06-12 18:15:00,82.4,61.3,29.77,NNW,338,20.0,28.0,49,0.00,,,0.08,Wunderground v.1.15,2013-06-12 23:15:00,
2013-06-12 18:20:00,82.3,61.8,29.77,NNW,335,19.0,19.0,50,0.00,,,0.08,Wunderground v.1.15,2013-06-12 23:20:00,
2013-06-12 18:30:00,81.5,61.1,29.77,North,349,20.0,28.0,50,0.00,,,0.08,Wunderground v.1.15,2013-06-12 23:30:00,
2013-06-12 18:35:00,80.9,61.1,29.78,NNW,348,21.0,28.0,51,0.00,,,0.08,Wunderground v.1.15,2013-06-12 23:35:00,
2013-06-12 18:45:00,79.8,60.1,29.78,NNW,337,22.0,28.0,51,0.00,,,0.08,Wunderground v.1.15,2013-06-12 23:45:00,
2013-06-12 18:50:00,79.6,60.4,29.79,NNW,342,21.0,28.0,52,0.00,,,0.08,Wunderground v.1.15,2013-06-12 23:50:00,
2013-06-12 18:55:00,79.4,60.8,29.79,North,351,20.0,28.0,53,0.00,,,0.08,Wunderground v.1.15,2013-06-12 23:55:00,
2013-06-12 19:00:00,79.3,59.6,29.79,NW,317,18.0,28.0,51,0.00,,,0.08,Wunderground v.1.15,2013-06-13 00:00:00,
2013-06-12 19:05:00,78.9,59.2,29.80,NNW,333,18.0,28.0,51,0.00,,,0.08,Wunderground v.1.15,2013-06-13 00:05:00,
2013-06-12 19:15:00,78.2,60.2,29.81,NNW,339,19.0,28.0,54,0.00,,,0.08,Wunderground v.1.15,2013-06-13 00:15:00,
2013-06-12 19:20:00,77.8,59.3,29.81,NNW,334,19.0,19.0,53,0.00,,,0.08,Wunderground v.1.15,2013-06-13 00:20:00,
2013-06-12 19:30:00,76.9,59.5,29.82,NNW,327,19.0,19.0,55,0.00,,,0.08,Wunderground v.1.15,2013-06-13 00:30:00,
2013-06-12 19:35:00,76.2,58.9,29.83,NNW,342,19.0,22.0,55,0.00,,,0.08,Wunderground v.1.15,2013-06-13 00:35:00,
2013-06-12 19:40:00,75.7,58.9,29.83,NNW,340,18.0,18.0,56,0.00,,,0.08,Wunderground v.1.15,2013-06-13 00:40:00,
2013-06-12 19:50:00,74.8,59.0,29.84,NNW,339,18.0,28.0,58,0.00,,,0.08,Wunderground v.1.15,2013-06-13 00:50:00,
2013-06-12 19:55:00,74.3,58.1,29.84,NNW,344,18.0,28.0,57,0.00,,,0.08,Wunderground v.1.15,2013-06-13 00:55:00,
2013-06-12 20:00:00,73.9,57.7,29.84,North,349,19.0,28.0,57,0.00,,,0.08,Wunderground v.1.15,2013-06-13 01:00:00,
2013-06-12 20:05:00,73.4,57.2,29.84,NNW,339,19.0,28.0,57,0.00,,,0.08,Wunderground v.1.15,2013-06-13 01:05:00,
2013-06-12 20:10:00,73.1,57.0,29.84,NNW,344,20.0,20.0,57,0.00,,,0.08,Wunderground v.1.15,2013-06-13 01:10:00,
2013-06-12 20:15:00,72.7,57.1,29.85,NNW,337,19.0,28.0,58,0.00,,,0.08,Wunderground v.1.15,2013-06-13 01:15:00,
2013-06-12 20:25:00,72.0,56.4,29.85,NNW,344,18.0,28.0,58,0.00,,,0.08,Wunderground v.1.15,2013-06-13 01:25:00,
2013-06-12 20:35:00,71.5,55.9,29.86,NNW,332,18.0,28.0,58,0.00,,,0.08,Wunderground v.1.15,2013-06-13 01:35:00,
2013-06-12 20:40:00,71.1,56.0,29.86,NNW,344,17.0,17.0,59,0.00,,,0.08,Wunderground v.1.15,2013-06-13 01:40:00,
2013-06-12 20:45:00,70.7,55.7,29.86,NNW,346,16.0,28.0,59,0.00,,,0.08,Wunderground v.1.15,2013-06-13 01:45:00,
2013-06-12 20:50:00,70.4,55.8,29.86,NNW,344,15.0,28.0,60,0.00,,,0.08,Wunderground v.1.15,2013-06-13 01:50:00,
2013-06-12 21:00:00,69.8,55.3,29.88,NNW,347,16.0,28.0,60,0.00,,,0.08,Wunderground v.1.15,2013-06-13 02:00:00,
2013-06-12 21:05:00,69.5,55.9,29.88,North,355,15.0,28.0,62,0.00,,,0.08,Wunderground v.1.15,2013-06-13 02:05:00,
2013-06-12 21:10:00,69.2,56.1,29.88,NNW,344,14.0,28.0,63,0.00,,,0.08,Wunderground v.1.15,2013-06-13 02:10:00,
2013-06-12 21:15:00,68.9,56.2,29.89,NNW,344,14.0,28.0,64,0.00,,,0.08,Wunderground v.1.15,2013-06-13 02:15:00,
2013-06-12 21:20:00,68.5,56.3,29.89,North,351,13.0,28.0,65,0.00,,,0.08,Wunderground v.1.15,2013-06-13 02:20:00,
2013-06-12 21:30:00,67.8,56.0,29.89,NNW,336,13.0,28.0,66,0.00,,,0.08,Wunderground v.1.15,2013-06-13 02:30:00,
2013-06-12 21:40:00,67.3,56.0,29.90,NNW,342,14.0,28.0,67,0.00,,,0.08,Wunderground v.1.15,2013-06-13 02:40:00,
2013-06-12 21:45:00,67.1,55.8,29.90,NNW,337,14.0,28.0,67,0.00,,,0.08,Wunderground v.1.15,2013-06-13 02:45:00,
2013-06-12 21:50:00,66.8,55.5,29.90,NNW,348,14.0,14.0,67,0.00,,,0.08,Wunderground v.1.15,2013-06-13 02:50:00,
2013-06-12 21:55:00,66.7,55.4,29.90,North,360,14.0,28.0,67,0.00,,,0.08,Wunderground v.1.15,2013-06-13 02:55:00,
2013-06-12 22:05:00,66.3,55.8,29.91,NNW,339,14.0,16.0,69,0.00,,,0.08,Wunderground v.1.15,2013-06-13 03:05:00,
2013-06-12 22:10:00,66.1,55.6,29.91,NNW,348,13.0,28.0,69,0.00,,,0.08,Wunderground v.1.15,2013-06-13 03:10:00,
2013-06-12 22:15:00,65.9,55.4,29.91,NNW,345,12.0,28.0,69,0.00,,,0.08,Wunderground v.1.15,2013-06-13 03:15:00,
2013-06-12 22:20:00,65.8,55.7,29.92,North,355,12.0,28.0,70,0.00,,,0.08,Wunderground v.1.15,2013-06-13 03:20:00,
2013-06-12 22:25:00,65.5,55.5,29.92,NW,325,12.0,28.0,70,0.00,,,0.08,Wunderground v.1.15,2013-06-13 03:25:00,
2013-06-12 22:35:00,64.9,55.7,29.93,NNW,340,11.0,28.0,72,0.00,,,0.08,Wunderground v.1.15,2013-06-13 03:35:00,
2013-06-12 22:45:00,64.6,55.7,29.94,NNW,344,11.0,13.0,73,0.00,,,0.08,Wunderground v.1.15,2013-06-13 03:45:00,
2013-06-12 22:50:00,64.5,55.7,29.94,North,355,11.0,28.0,73,0.00,,,0.08,Wunderground v.1.15,2013-06-13 03:50:00,
2013-06-12 22:55:00,64.5,55.7,29.93,North,350,12.0,28.0,73,0.00,,,0.08,Wunderground v.1.15,2013-06-13 03:55:00,
2013-06-12 23:00:00,64.4,55.6,29.94,NNW,345,12.0,12.0,73,0.00,,,0.08,Wunderground v.1.15,2013-06-13 04:00:00,
2013-06-12 23:05:00,64.2,55.7,29.94,NNW,341,11.0,28.0,74,0.00,,,0.08,Wunderground v.1.15,2013-06-13 04:05:00,
2013-06-12 23:10:00,63.9,55.4,29.95,North,350,9.0,28.0,74,0.00,,,0.08,Wunderground v.1.15,2013-06-13 04:10:00,
2013-06-12 23:15:00,63.7,55.6,29.95,North,350,9.0,28.0,75,0.00,,,0.08,Wunderground v.1.15,2013-06-13 04:15:00,
2013-06-12 23:20:00,63.6,55.2,29.95,NNE,32,9.0,28.0,74,0.00,,,0.08,Wunderground v.1.15,2013-06-13 04:20:00,
2013-06-12 23:25:00,63.7,55.3,29.95,North,5,11.0,28.0,74,0.00,,,0.08,Wunderground v.1.15,2013-06-13 04:25:00,
2013-06-12 23:30:00,63.7,54.9,29.95,North,355,12.0,28.0,73,0.00,,,0.08,Wunderground v.1.15,2013-06-13 04:30:00,
2013-06-12 23:35:00,63.6,54.8,29.95,North,355,12.0,28.0,73,0.00,,,0.08,Wunderground v.1.15,2013-06-13 04:35:00,
2013-06-12 23:40:00,63.4,54.6,29.95,NNW,348,11.0,11.0,73,0.00,,,0.08,Wunderground v.1.15,2013-06-13 04:40:00,
2013-06-12 23:45:00,63.2,54.4,29.95,North,355,11.0,28.0,73,0.00,,,0.08,Wunderground v.1.15,2013-06-13 04:45:00,
2013-06-12 23:50:00,63.0,54.2,29.95,North,351,11.0,11.0,73,0.00,,,0.08,Wunderground v.1.15,2013-06-13 04:50:00,
2013-06-12 23:55:00,62.9,54.1,29.95,North,355,9.0,28.0,73,0.00,,,0.08,Wunderground v.1.15,2013-06-13 04:55:00,